Weather History for KHJH - February, 2014

Change the Weather History Date:

Friday, February 21, 2014

  Actual Average (KCNK) Record (KCNK)
Temperature  
Mean Temperature 38 °F 34 °F  
Max Temperature 54 °F 45 °F 74 °F (1977)
Min Temperature 23 °F 24 °F -3 °F (1918)
Degree Days  
Heating Degree Days 26 30  
Month to date heating degree days 698  
Since 1 July heating degree days 4002  
Cooling Degree Days 0 0  
Month to date cooling degree days 0  
Year to date cooling degree days 0  
Moisture  
Dew Point 19 °F    
Average Humidity 51    
Maximum Humidity 84    
Minimum Humidity 21    
Precipitation  
Precipitation 0.00 in 0.03 in 0.68 in (1913)
Month to date precipitation 0.56  
Year to date precipitation 1.14  
Snow  
Snow 0.00 in 0.10 in 7.40 in (1971)
Month to date snowfall 4.0  
Year to date snowfall 9.7  
Since 1 July snowfall 16.2  
Snow Depth -    
Sea Level Pressure  
Sea Level Pressure 29.83 in    
Wind  
Wind Speed 7 mph (West)    
Max Wind Speed 24 mph    
Max Gust Speed 29 mph    
Visibility 10 miles    
Events      
T = Trace of Precipitation, MM = Missing Value Source: NWS Daily Summary

Daily Weather History Graph

Daily Weather History Graph

Search for Another Location

Airport or City:

Trip Planner

Search our weather history database for the weather conditions in past years. The results will help you decide how hot, cold, wet, or windy it might be!

Date:

Astronomy

Feb. 21, 2014 Rise Set
Actual Time 7:15 AM CST 6:13 PM CST
Civil Twilight 6:47 AM CST 6:40 PM CST
Nautical Twilight 6:16 AM CST 7:12 PM CST
Astronomical Twilight 5:44 AM CST 7:43 PM CST
Moon 12:08 AM CST (2/21) 10:40 AM CST (2/21)
Length of Visible Light 11h 52m
Length of Day
10h 57m
Waning Gibbous, 60% of the Moon is Illuminated
Feb 21
Waning Gibbous
Feb 22
Last Quarter
Mar 1
New
Mar 8
First Quarter
Mar 16
Full

Hourly Weather History & Observations

Time (CST) Temp. Windchill Dew Point Humidity Pressure Visibility Wind Dir Wind Speed Gust Speed Precip Events Conditions
12:15 AM 25.5 °F - 18.5 °F 75% 29.85 in 10.0 mi Calm Calm - N/A   Clear
12:35 AM 24.1 °F - 17.8 °F 77% 29.85 in 10.0 mi Calm Calm - N/A   Clear
12:55 AM 25.0 °F - 18.3 °F 76% 29.85 in 10.0 mi Calm Calm - N/A   Clear
1:15 AM 27.7 °F 20.4 °F 19.4 °F 71% 29.85 in 10.0 mi West 6.9 mph - N/A   Clear
1:35 AM 28.2 °F 19.5 °F 19.4 °F 70% 29.85 in 10.0 mi WSW 9.2 mph - N/A   Clear
1:55 AM 26.8 °F 19.3 °F 19.2 °F 73% 29.85 in 10.0 mi WSW 6.9 mph - N/A   Clear
2:15 AM 27.5 °F 18.0 °F 19.4 °F 72% 29.85 in 10.0 mi WSW 10.4 mph - N/A   Clear
2:35 AM 27.3 °F 17.1 °F 19.4 °F 72% 29.86 in 10.0 mi WSW 11.5 mph - N/A   Clear
2:55 AM 28.0 °F 19.3 °F 19.6 °F 71% 29.85 in 10.0 mi WSW 9.2 mph - N/A   Clear
3:15 AM 27.7 °F 18.8 °F 19.9 °F 73% 29.86 in 10.0 mi WSW 9.2 mph - N/A   Clear
3:35 AM 27.5 °F 19.3 °F 19.4 °F 72% 29.86 in 10.0 mi SW 8.1 mph - N/A   Clear
3:55 AM 26.2 °F 17.8 °F 19.4 °F 75% 29.86 in 10.0 mi WSW 8.1 mph - N/A   Clear
4:15 AM 26.4 °F 22.4 °F 19.8 °F 76% 29.86 in 10.0 mi West 3.5 mph - N/A   Clear
4:35 AM 26.4 °F 19.8 °F 19.9 °F 77% 29.86 in 10.0 mi WSW 5.8 mph - N/A   Clear
4:55 AM 26.4 °F 18.9 °F 19.9 °F 77% 29.86 in 10.0 mi WSW 6.9 mph - N/A   Clear
5:15 AM 26.6 °F 20.0 °F 20.1 °F 77% 29.86 in 10.0 mi West 5.8 mph - N/A   Clear
5:35 AM 25.2 °F - 19.2 °F 78% 29.86 in 10.0 mi Calm Calm - N/A   Clear
5:55 AM 23.2 °F 18.7 °F 18.9 °F 84% 29.85 in 10.0 mi WSW 3.5 mph - N/A   Clear
6:15 AM 23.4 °F - 18.7 °F 82% 29.85 in 10.0 mi Calm Calm - N/A   Clear
6:35 AM 23.7 °F 16.6 °F 19.4 °F 84% 29.85 in 10.0 mi WSW 5.8 mph - N/A   Clear
6:55 AM 25.7 °F 16.4 °F 20.1 °F 79% 29.84 in 10.0 mi SW 9.2 mph - N/A   Clear
7:15 AM 25.2 °F 17.3 °F 19.8 °F 80% 29.83 in 10.0 mi WSW 6.9 mph - N/A   Clear
7:35 AM 26.1 °F 19.4 °F 19.9 °F 78% 29.83 in 10.0 mi SW 5.8 mph - N/A   Clear
7:55 AM 26.4 °F 20.9 °F 19.9 °F 77% 29.83 in 10.0 mi SW 4.6 mph - N/A   Clear
8:15 AM 27.0 °F 21.6 °F 20.3 °F 76% 29.83 in 10.0 mi West 4.6 mph - N/A   Clear
8:35 AM 28.8 °F 23.7 °F 20.7 °F 72% 29.83 in 10.0 mi West 4.6 mph - N/A   Clear
8:55 AM 31.6 °F 23.1 °F 21.0 °F 65% 29.82 in 10.0 mi WSW 10.4 mph - N/A   Clear
9:15 AM 33.3 °F 24.6 °F 21.4 °F 62% 29.81 in 10.0 mi West 11.5 mph 16.1 mph N/A   Clear
9:35 AM 36.0 °F 28.5 °F 22.3 °F 58% 29.81 in 10.0 mi West 10.4 mph - N/A   Clear
9:55 AM 38.7 °F 31.4 °F 22.6 °F 53% 29.80 in 10.0 mi WSW 11.5 mph 16.1 mph N/A   Clear
10:15 AM 40.1 °F 33.6 °F 22.8 °F 50% 29.80 in 10.0 mi WSW 10.4 mph - N/A   Clear
10:35 AM 41.2 °F 34.5 °F 23.2 °F 49% 29.80 in 10.0 mi SW 11.5 mph - N/A   Clear
10:55 AM 43.3 °F 38.1 °F 23.4 °F 45% 29.80 in 10.0 mi WSW 9.2 mph - N/A   Clear
11:15 AM 46.2 °F 40.8 °F 23.2 °F 40% 29.79 in 10.0 mi West 11.5 mph 16.1 mph N/A   Clear
11:35 AM 49.5 °F - 21.4 °F 33% 29.79 in 10.0 mi WNW 16.1 mph 21.9 mph N/A   Clear
11:55 AM 50.9 °F - 19.6 °F 29% 29.79 in 10.0 mi WNW 18.4 mph 25.3 mph N/A   Clear
12:15 PM 51.4 °F - 20.5 °F 30% 29.79 in 10.0 mi WNW 16.1 mph 23.0 mph N/A   Clear
12:35 PM 51.3 °F - 20.1 °F 29% 29.79 in 10.0 mi NW 18.4 mph 27.6 mph N/A   Clear
12:55 PM 51.6 °F - 21.2 °F 30% 29.79 in 10.0 mi NW 16.1 mph 24.2 mph N/A   Clear
1:15 PM 52.0 °F - 20.3 °F 29% 29.79 in 10.0 mi WNW 13.8 mph 26.5 mph N/A   Clear
1:35 PM 52.5 °F - 19.9 °F 28% 29.78 in 10.0 mi NW 24.2 mph 28.8 mph N/A   Clear
1:55 PM 52.7 °F - 18.3 °F 26% 29.78 in 10.0 mi NW 19.6 mph 25.3 mph N/A   Clear
2:15 PM 52.7 °F - 16.9 °F 24% 29.78 in 10.0 mi NW 19.6 mph 26.5 mph N/A   Clear
2:35 PM 53.1 °F - 17.1 °F 24% 29.79 in 10.0 mi WNW 17.3 mph 25.3 mph N/A   Clear
2:55 PM 53.1 °F - 18.0 °F 25% 29.79 in 10.0 mi WNW 11.5 mph - N/A   Clear
3:15 PM 53.4 °F - 18.0 °F 25% 29.79 in 10.0 mi West 13.8 mph 25.3 mph N/A   Clear
3:35 PM 54.3 °F - 18.3 °F 24% 29.79 in 10.0 mi West 16.1 mph 27.6 mph N/A   Scattered Clouds
3:55 PM 54.0 °F - 17.2 °F 24% 29.79 in 10.0 mi West 16.1 mph 21.9 mph N/A   Mostly Cloudy
4:15 PM 50.9 °F - 15.6 °F 25% 29.80 in 10.0 mi WNW 13.8 mph 23.0 mph N/A   Scattered Clouds
4:35 PM 52.2 °F - 13.5 °F 21% 29.80 in 10.0 mi WNW 15.0 mph 24.2 mph N/A   Clear
4:55 PM 52.7 °F - 13.5 °F 21% 29.81 in 10.0 mi WNW 13.8 mph 24.2 mph N/A   Scattered Clouds
5:15 PM 52.2 °F - 13.1 °F 21% 29.81 in 10.0 mi WNW 13.8 mph 20.7 mph N/A   Scattered Clouds
5:35 PM 51.1 °F - 11.7 °F 21% 29.82 in 10.0 mi WNW 11.5 mph 24.2 mph N/A   Clear
5:55 PM 49.3 °F - 12.2 °F 23% 29.82 in 10.0 mi WNW 9.2 mph - N/A   Clear
6:15 PM 46.0 °F 43.9 °F 13.5 °F 27% 29.83 in 10.0 mi West 4.6 mph - N/A   Clear
6:35 PM 43.9 °F 40.5 °F 13.6 °F 29% 29.83 in 10.0 mi West 5.8 mph - N/A   Clear
6:55 PM 39.9 °F 36.7 °F 14.9 °F 36% 29.84 in 10.0 mi West 4.6 mph - N/A   Clear
7:15 PM 38.8 °F 33.8 °F 15.6 °F 39% 29.85 in 10.0 mi WSW 6.9 mph - N/A   Clear
7:35 PM 38.7 °F 33.6 °F 16.7 °F 41% 29.85 in 10.0 mi WSW 6.9 mph - N/A   Clear
7:55 PM 35.2 °F - 18.5 °F 51% 29.86 in 10.0 mi Calm Calm - N/A   Clear
8:15 PM 34.9 °F 30.8 °F 19.4 °F 53% 29.86 in 10.0 mi SW 4.6 mph - N/A   Scattered Clouds
8:35 PM 34.0 °F - 19.6 °F 56% 29.86 in 10.0 mi Calm Calm - N/A   Scattered Clouds
8:55 PM 33.8 °F - 18.9 °F 54% 29.86 in 10.0 mi Calm Calm - N/A   Mostly Cloudy
9:15 PM 32.7 °F - 21.7 °F 64% 29.87 in 10.0 mi Calm Calm - N/A   Overcast
9:35 PM 36.3 °F 30.8 °F 20.7 °F 53% 29.87 in 10.0 mi SW 6.9 mph - N/A   Overcast
9:55 PM 40.5 °F 35.1 °F 18.7 °F 42% 29.86 in 10.0 mi WSW 8.1 mph - N/A   Overcast
10:15 PM 41.7 °F 36.1 °F 18.7 °F 40% 29.86 in 10.0 mi WSW 9.2 mph - N/A   Overcast
10:35 PM 43.7 °F 39.1 °F 19.0 °F 37% 29.86 in 10.0 mi WSW 8.1 mph - N/A   Overcast
10:55 PM 43.5 °F 38.3 °F 19.6 °F 38% 29.87 in 10.0 mi WSW 9.2 mph - N/A   Overcast
11:15 PM 43.9 °F 39.9 °F 20.8 °F 40% 29.88 in 10.0 mi WSW 6.9 mph - N/A   Overcast
11:35 PM 46.6 °F - 22.1 °F 38% 29.88 in 10.0 mi West 16.1 mph 19.6 mph N/A   Overcast
11:55 PM 46.4 °F 41.1 °F 23.4 °F 40% 29.88 in 10.0 mi West 11.5 mph 18.4 mph N/A   Overcast